Temp_Advection
nan nan nan nan nan nan nan nan nan nan nan nan nan nan nan nan nan nan nan nan nan nan
nan -1 -1 -1 -0 -0 -0 1 1 0 0 -0 0 1 1 1 2 1 0 1 -0 nan
nan -1 -1 -1 -1 0 0 0 -0 0 0 -0 0 1 1 1 0 0 1 0 0 nan
nan -1 -1 -1 -1 -0 0 -0 -0 0 0 0 0 1 1 -0 0 1 0 0 1 nan
nan -1 -1 -1 -1 -1 -0 -0 1 1 1 0 1 1 1 1 1 1 0 1 0 nan
nan -1 -1 -1 -1 -1 -0 1 1 0 0 -0 0 1 1 0 1 1 1 1 -0 nan
nan -0 -1 -1 -1 -1 -1 0 0 0 1 -0 1 1 0 1 1 1 1 1 0 nan
nan -0 -0 -0 -0 -0 -1 -0 0 0 -0 1 2 1 1 1 1 1 1 1 1 nan
nan -0 -0 -0 -0 -0 -0 -0 0 0 0 1 1 1 1 1 1 1 1 1 1 nan
nan -0 -0 -0 0 0 -0 -0 -0 0 -0 -0 1 1 2 1 1 1 1 1 1 nan
nan -1 -0 0 0 0 0 -0 -0 -0 0 -0 0 1 1 1 2 1 1 2 1 nan
nan -0 -0 -0 0 0 0 0 0 0 0 0 0 1 0 1 1 1 2 2 3 nan
nan -0 -0 -0 0 0 0 1 0 0 0 0 0 1 0 0 1 1 2 1 2 nan
nan nan nan nan nan nan nan nan nan nan nan nan nan nan nan nan nan nan nan nan nan nan
Wind_Speed
11 8 10 16 24 35 38 36 33 40 41 43 47 52 55 55 53 54 49 42 34 28
12 10 10 12 27 33 39 41 39 39 43 43 44 47 49 52 57 49 44 39 31 29
19 12 9 11 22 32 39 41 42 43 44 44 44 45 47 47 51 49 45 42 37 35
20 14 10 10 15 26 38 40 42 43 47 48 46 46 46 46 48 49 45 38 37 36
22 18 12 10 10 18 33 40 42 44 47 50 50 50 49 46 43 47 45 42 41 38
23 20 16 11 10 12 20 36 40 42 45 49 50 50 48 46 46 47 47 48 45 41
25 23 20 14 10 9 14 22 30 37 46 50 50 50 49 47 47 47 46 45 44 43
24 23 20 15 9 7 9 15 21 28 38 47 50 50 49 48 48 48 47 46 44 42
24 22 22 19 14 8 6 9 14 19 28 41 46 48 46 48 47 47 48 48 46 43
25 23 23 21 17 11 7 5 8 14 19 31 38 42 44 42 44 46 48 48 47 46
23 23 21 21 21 15 12 7 4 6 13 20 26 34 42 45 39 40 42 45 46 46
22 22 22 22 23 22 16 11 2 3 3 10 18 28 38 39 41 37 40 45 46 45
22 21 23 21 21 23 19 18 12 6 8 10 14 19 25 29 41 39 39 36 36 37
18 17 20 20 18 19 19 21 21 17 14 14 11 9 10 18 32 37 39 41 40 39
Wind_Direction
325 302 252 235 205 217 220 226 221 214 216 218 220 214 213 213 216 215 202 202 195 194
353 308 283 245 222 218 226 225 220 216 214 219 220 224 226 218 216 211 202 198 193 196
360 345 299 267 232 217 222 229 225 218 215 217 221 225 224 224 213 208 203 198 198 204
359 354 329 283 255 224 218 226 230 223 220 216 219 222 223 220 212 208 198 202 208 212
1 -0 345 302 261 245 220 221 232 232 224 221 220 221 221 219 211 203 197 200 210 215
9 7 2 336 289 250 234 220 223 230 224 222 218 219 218 216 210 205 206 211 218 217
14 14 10 358 328 289 246 229 230 226 227 221 221 219 217 217 215 216 216 218 219 216
15 16 15 14 359 320 274 238 226 228 229 224 220 224 220 219 220 218 217 215 216 217
16 18 20 23 24 3 315 261 238 234 227 226 221 221 223 225 221 219 217 214 212 211
14 17 21 27 31 36 30 305 249 229 236 232 225 223 219 220 221 221 217 215 210 207
12 14 23 30 33 40 46 28 298 244 230 231 228 223 220 213 213 217 214 212 208 204
11 15 23 28 32 36 49 61 55 203 214 214 216 218 222 220 204 208 207 204 205 211
7 16 23 24 31 38 53 73 99 146 138 148 172 196 216 218 211 199 195 194 192 196
8 21 28 29 33 40 50 71 90 100 112 123 140 161 197 203 208 206 202 207 211 216
Height
1422 1419 1421 1419 1422 1428 1433 1439 1441 1448 1452 1456 1462 1465 1467 1473 1477 1479 1483 1491 1495 1502
1418 1413 1414 1416 1418 1422 1428 1434 1438 1441 1447 1452 1456 1461 1465 1467 1471 1478 1484 1490 1495 1503
1416 1415 1414 1413 1415 1417 1421 1427 1432 1436 1440 1446 1451 1455 1459 1462 1467 1476 1480 1488 1492 1498
1419 1413 1410 1410 1410 1411 1415 1420 1425 1430 1435 1440 1445 1450 1454 1457 1463 1470 1478 1485 1489 1495
1416 1409 1407 1408 1407 1407 1408 1412 1418 1422 1428 1434 1439 1443 1448 1453 1459 1464 1473 1479 1485 1490
1417 1411 1407 1405 1403 1402 1403 1405 1410 1415 1421 1428 1432 1437 1442 1448 1454 1461 1467 1473 1479 1485
1419 1415 1411 1406 1401 1398 1399 1400 1404 1407 1415 1420 1427 1432 1437 1444 1451 1458 1464 1470 1475 1480
1423 1418 1413 1408 1402 1399 1399 1399 1400 1403 1408 1411 1419 1427 1431 1437 1445 1451 1458 1464 1470 1476
1424 1420 1416 1408 1402 1400 1397 1396 1397 1399 1403 1407 1410 1418 1425 1432 1438 1446 1452 1458 1464 1472
1425 1423 1418 1412 1407 1402 1398 1398 1399 1397 1399 1403 1406 1410 1417 1426 1433 1440 1446 1453 1459 1466
1433 1429 1423 1415 1410 1406 1399 1398 1395 1395 1399 1400 1402 1407 1413 1418 1426 1435 1441 1449 1454 1460
1440 1435 1426 1417 1411 1408 1403 1401 1401 1400 1398 1398 1402 1406 1410 1413 1420 1431 1436 1444 1449 1455
1437 1431 1425 1422 1414 1410 1408 1406 1404 1403 1402 1403 1404 1406 1411 1415 1419 1426 1433 1442 1447 1455
1441 1434 1428 1423 1421 1418 1415 1412 1409 1409 1407 1406 1409 1409 1412 1413 1417 1422 1428 1436 1442 1449